Torna al catalogo

STARLINK-36522

AttivoComunicazioniVLEO
NORAD 67461·PAYLOAD·🇺🇸 United States

Lanciato Jan 14, 2026 da Cape Canaveral Space Force Station

Loading…

Prossimi Passaggi (prossime 24 ore)

TLE

AggiornatoSource: CelesTrak SupGP

Epoca: Sep 14, 2026, 22:43 UTC

1 67461C 26008S   26257.94701389  .00003442  00000+0  12464-3 0  2572
2 67461  43.0013 216.4082 0001087 242.3780 223.6196 15.27584720    13

Traccia STARLINK-36522 in tempo reale con AllMySat

Download on the App Store